Time,TemperatureF,DewpointF,PressureIn,WindDirection,WindDirectionDegrees,WindSpeedMPH,WindSpeedGustMPH,Humidity,HourlyPrecipIn,Conditions,Clouds,dailyrainin,SoftwareType,DateUTC
2013-01-22 00:01:00,55.6,28.9,30.11,East,90,0.9,1.6,36,0.00,,,0.00,WUHU216HW,2013-01-22 07:01:00,
2013-01-22 00:06:00,55.6,28.9,30.11,NW,315,1.6,1.6,36,0.00,,,0.00,WUHU216HW,2013-01-22 07:06:00,
2013-01-22 00:11:00,55.8,29.7,30.11,NW,315,2.0,2.5,37,0.00,,,0.00,WUHU216HW,2013-01-22 07:11:00,
2013-01-22 00:16:00,56.0,29.9,30.11,NNW,338,1.1,2.7,37,0.00,,,0.00,WUHU216HW,2013-01-22 07:16:00,
2013-01-22 00:21:00,56.2,30.1,30.11,North,0,0.2,2.7,37,0.00,,,0.00,WUHU216HW,2013-01-22 07:21:00,
2013-01-22 00:26:00,56.3,29.5,30.11,East,90,2.0,2.7,36,0.00,,,0.00,WUHU216HW,2013-01-22 07:26:00,
2013-01-22 00:31:00,56.2,29.3,30.11,ENE,68,2.0,3.4,36,0.00,,,0.00,WUHU216HW,2013-01-22 07:31:00,
2013-01-22 00:36:00,56.0,29.2,30.11,ENE,68,2.2,3.8,36,0.00,,,0.00,WUHU216HW,2013-01-22 07:36:00,
2013-01-22 00:41:00,55.8,29.0,30.11,East,90,1.8,3.8,36,0.00,,,0.00,WUHU216HW,2013-01-22 07:41:00,
2013-01-22 00:46:00,55.4,28.7,30.11,East,90,1.1,3.1,36,0.00,,,0.00,WUHU216HW,2013-01-22 07:46:00,
2013-01-22 00:51:00,55.4,29.4,30.12,NE,45,0.2,1.8,37,0.00,,,0.00,WUHU216HW,2013-01-22 07:51:00,
2013-01-22 00:56:00,55.3,29.3,30.12,NNE,23,0.2,1.6,37,0.00,,,0.00,WUHU216HW,2013-01-22 07:56:00,
2013-01-22 01:01:00,55.4,29.4,30.12,SE,135,0.0,1.3,37,0.00,,,0.00,WUHU216HW,2013-01-22 08:01:00,
2013-01-22 01:06:00,55.4,29.4,30.13,SE,135,1.3,1.8,37,0.00,,,0.00,WUHU216HW,2013-01-22 08:06:00,
2013-01-22 01:11:00,55.4,29.4,30.13,East,90,0.4,1.8,37,0.00,,,0.00,WUHU216HW,2013-01-22 08:11:00,
2013-01-22 01:16:00,55.4,29.4,30.13,ENE,68,1.1,1.3,37,0.00,,,0.00,WUHU216HW,2013-01-22 08:16:00,
2013-01-22 01:21:00,55.4,29.4,30.13,East,90,1.1,1.6,37,0.00,,,0.00,WUHU216HW,2013-01-22 08:21:00,
2013-01-22 01:26:00,55.4,29.4,30.13,East,90,1.8,1.8,37,0.00,,,0.00,WUHU216HW,2013-01-22 08:26:00,
2013-01-22 01:31:00,55.4,28.7,30.13,SE,135,1.3,2.2,36,0.00,,,0.00,WUHU216HW,2013-01-22 08:31:00,
2013-01-22 01:36:00,55.1,29.1,30.13,SSW,203,1.6,2.7,37,0.00,,,0.00,WUHU216HW,2013-01-22 08:36:00,
2013-01-22 01:41:00,54.7,28.8,30.13,SSE,158,0.7,2.7,37,0.00,,,0.00,WUHU216HW,2013-01-22 08:41:00,
2013-01-22 01:46:00,54.4,28.4,30.13,SE,135,0.7,1.6,37,0.00,,,0.00,WUHU216HW,2013-01-22 08:46:00,
2013-01-22 01:51:00,54.0,28.2,30.13,East,90,1.8,1.8,37,0.00,,,0.00,WUHU216HW,2013-01-22 08:51:00,
2013-01-22 01:56:00,53.6,28.5,30.13,ESE,113,2.5,2.5,38,0.00,,,0.00,WUHU216HW,2013-01-22 08:56:00,
2013-01-22 02:01:00,53.5,28.4,30.13,ENE,68,1.1,2.5,38,0.00,,,0.00,WUHU216HW,2013-01-22 09:01:00,
2013-01-22 02:06:00,53.3,28.2,30.13,ENE,68,1.3,1.8,38,0.00,,,0.00,WUHU216HW,2013-01-22 09:06:00,
2013-01-22 02:11:00,53.3,28.2,30.13,ESE,113,1.1,2.0,38,0.00,,,0.00,WUHU216HW,2013-01-22 09:11:00,
2013-01-22 02:16:00,53.1,28.7,30.14,East,90,0.9,2.2,39,0.00,,,0.00,WUHU216HW,2013-01-22 09:16:00,
2013-01-22 02:21:00,52.9,28.5,30.13,ENE,68,1.1,2.2,39,0.00,,,0.00,WUHU216HW,2013-01-22 09:21:00,
2013-01-22 02:26:00,52.7,28.4,30.14,ESE,113,1.3,2.5,39,0.00,,,0.00,WUHU216HW,2013-01-22 09:26:00,
2013-01-22 02:31:00,52.6,28.3,30.14,ESE,113,2.0,2.9,39,0.00,,,0.00,WUHU216HW,2013-01-22 09:31:00,
2013-01-22 02:36:00,52.2,28.6,30.14,ESE,113,2.5,2.9,40,0.00,,,0.00,WUHU216HW,2013-01-22 09:36:00,
2013-01-22 02:41:00,52.2,28.6,30.14,East,90,2.0,2.5,40,0.00,,,0.00,WUHU216HW,2013-01-22 09:41:00,
2013-01-22 02:46:00,52.2,28.6,30.14,ENE,68,1.6,2.5,40,0.00,,,0.00,WUHU216HW,2013-01-22 09:46:00,
2013-01-22 02:51:00,52.2,29.2,30.14,ENE,68,1.8,2.5,41,0.00,,,0.00,WUHU216HW,2013-01-22 09:51:00,
2013-01-22 02:56:00,52.4,29.4,30.14,ENE,68,1.8,2.5,41,0.00,,,0.00,WUHU216HW,2013-01-22 09:56:00,
2013-01-22 03:01:00,52.4,29.4,30.14,East,90,1.8,2.5,41,0.00,,,0.00,WUHU216HW,2013-01-22 10:01:00,
2013-01-22 03:06:00,52.6,29.4,30.14,ENE,68,1.3,2.2,41,0.00,,,0.00,WUHU216HW,2013-01-22 10:06:00,
2013-01-22 03:11:00,52.6,29.4,30.14,ENE,68,2.0,2.5,41,0.00,,,0.00,WUHU216HW,2013-01-22 10:11:00,
2013-01-22 03:16:00,52.9,29.3,30.14,NNE,23,1.1,2.5,40,0.00,,,0.00,WUHU216HW,2013-01-22 10:16:00,
2013-01-22 03:21:00,52.9,29.3,30.13,NE,45,2.9,2.9,40,0.00,,,0.00,WUHU216HW,2013-01-22 10:21:00,
2013-01-22 03:26:00,53.6,29.9,30.13,NE,45,3.4,3.6,40,0.00,,,0.00,WUHU216HW,2013-01-22 10:26:00,
2013-01-22 03:31:00,54.4,29.9,30.13,ENE,68,1.8,3.6,39,0.00,,,0.00,WUHU216HW,2013-01-22 10:31:00,
2013-01-22 03:36:00,54.9,30.3,30.13,SE,135,1.8,3.4,39,0.00,,,0.00,WUHU216HW,2013-01-22 10:36:00,
2013-01-22 03:41:00,54.7,29.4,30.14,WNW,293,0.7,3.1,38,0.00,,,0.00,WUHU216HW,2013-01-22 10:41:00,
2013-01-22 03:46:00,54.4,29.2,30.14,North,0,0.0,1.8,38,0.00,,,0.00,WUHU216HW,2013-01-22 10:46:00,
2013-01-22 03:51:00,54.2,29.0,30.14,West,270,0.4,1.8,38,0.00,,,0.00,WUHU216HW,2013-01-22 10:51:00,
2013-01-22 03:56:00,54.0,28.8,30.14,SW,225,1.1,1.8,38,0.00,,,0.00,WUHU216HW,2013-01-22 10:56:00,
2013-01-22 04:01:00,53.8,29.3,30.14,East,90,0.9,1.8,39,0.00,,,0.00,WUHU216HW,2013-01-22 11:01:00,
2013-01-22 04:06:00,53.6,29.2,30.14,South,180,0.9,2.5,39,0.00,,,0.00,WUHU216HW,2013-01-22 11:06:00,
2013-01-22 04:11:00,53.5,29.1,30.14,SE,135,2.0,2.5,39,0.00,,,0.00,WUHU216HW,2013-01-22 11:11:00,
2013-01-22 04:16:00,53.3,28.9,30.14,SE,135,1.6,2.5,39,0.00,,,0.00,WUHU216HW,2013-01-22 11:16:00,
2013-01-22 04:21:00,52.9,29.3,30.14,SE,135,1.1,2.5,40,0.00,,,0.00,WUHU216HW,2013-01-22 11:21:00,
2013-01-22 04:26:00,52.7,29.1,30.13,ESE,113,0.7,2.5,40,0.00,,,0.00,WUHU216HW,2013-01-22 11:26:00,
2013-01-22 04:32:00,52.7,29.1,30.13,East,90,0.4,1.6,40,0.00,,,0.00,WUHU216HW,2013-01-22 11:32:00,
2013-01-22 04:37:00,52.6,28.9,30.13,SE,135,0.0,1.3,40,0.00,,,0.00,WUHU216HW,2013-01-22 11:37:00,
2013-01-22 04:42:00,52.6,28.9,30.13,WSW,248,0.7,1.1,40,0.00,,,0.00,WUHU216HW,2013-01-22 11:42:00,
2013-01-22 04:47:00,52.4,28.7,30.13,WSW,248,0.7,1.1,40,0.00,,,0.00,WUHU216HW,2013-01-22 11:47:00,
2013-01-22 04:52:00,52.2,28.6,30.13,WNW,293,1.1,1.6,40,0.00,,,0.00,WUHU216HW,2013-01-22 11:52:00,
2013-01-22 04:57:00,52.2,28.6,30.13,WNW,293,1.8,1.8,40,0.00,,,0.00,WUHU216HW,2013-01-22 11:57:00,
2013-01-22 05:02:00,52.4,28.7,30.13,West,270,1.1,1.8,40,0.00,,,0.00,WUHU216HW,2013-01-22 12:02:00,
2013-01-22 05:07:00,52.2,28.6,30.12,NNW,338,1.3,1.8,40,0.00,,,0.00,WUHU216HW,2013-01-22 12:07:00,
2013-01-22 05:12:00,52.2,28.6,30.12,North,0,2.2,2.2,40,0.00,,,0.00,WUHU216HW,2013-01-22 12:12:00,
2013-01-22 05:17:00,52.4,29.4,30.12,North,0,1.8,2.5,41,0.00,,,0.00,WUHU216HW,2013-01-22 12:17:00,
2013-01-22 05:22:00,52.6,29.4,30.12,North,0,1.1,2.5,41,0.00,,,0.00,WUHU216HW,2013-01-22 12:22:00,
2013-01-22 05:27:00,52.6,29.4,30.12,NNW,338,1.1,2.5,41,0.00,,,0.00,WUHU216HW,2013-01-22 12:27:00,
2013-01-22 05:32:00,52.7,29.1,30.12,NNW,338,2.0,2.7,40,0.00,,,0.00,WUHU216HW,2013-01-22 12:32:00,
2013-01-22 05:37:00,52.7,29.6,30.12,WNW,293,1.8,2.9,41,0.00,,,0.00,WUHU216HW,2013-01-22 12:37:00,
2013-01-22 05:42:00,52.4,28.7,30.12,WSW,248,1.3,2.9,40,0.00,,,0.00,WUHU216HW,2013-01-22 12:42:00,
2013-01-22 05:47:00,51.8,28.8,30.12,West,270,1.1,1.8,41,0.00,,,0.00,WUHU216HW,2013-01-22 12:47:00,
2013-01-22 05:52:00,51.5,28.5,30.13,SSW,203,0.0,1.8,41,0.00,,,0.00,WUHU216HW,2013-01-22 12:52:00,
2013-01-22 05:57:00,51.1,28.2,30.13,East,90,0.4,1.1,41,0.00,,,0.00,WUHU216HW,2013-01-22 12:57:00,
2013-01-22 06:02:00,50.8,28.5,30.13,SE,135,0.0,0.9,42,0.00,,,0.00,WUHU216HW,2013-01-22 13:02:00,
2013-01-22 06:07:00,50.4,28.1,30.14,ENE,68,0.0,0.4,42,0.00,,,0.00,WUHU216HW,2013-01-22 13:07:00,
2013-01-22 06:12:00,50.2,27.9,30.14,NNW,338,0.4,0.4,42,0.00,,,0.00,WUHU216HW,2013-01-22 13:12:00,
2013-01-22 06:17:00,50.2,27.9,30.14,North,0,0.4,0.9,42,0.00,,,0.00,WUHU216HW,2013-01-22 13:17:00,
2013-01-22 06:22:00,50.2,27.9,30.14,North,0,2.9,3.4,42,0.00,,,0.00,WUHU216HW,2013-01-22 13:22:00,
2013-01-22 06:27:00,50.6,28.3,30.15,North,0,4.0,4.0,42,0.00,,,0.00,WUHU216HW,2013-01-22 13:27:00,
2013-01-22 06:32:00,50.9,28.5,30.15,North,0,3.6,4.5,42,0.00,,,0.00,WUHU216HW,2013-01-22 13:32:00,
2013-01-22 06:37:00,51.3,28.9,30.15,NNE,23,2.9,4.5,42,0.00,,,0.00,WUHU216HW,2013-01-22 13:37:00,
2013-01-22 06:42:00,51.5,29.6,30.15,NNE,23,2.9,4.3,43,0.00,,,0.00,WUHU216HW,2013-01-22 13:42:00,
2013-01-22 06:47:00,51.5,29.6,30.15,North,0,2.5,4.3,43,0.00,,,0.00,WUHU216HW,2013-01-22 13:47:00,
2013-01-22 06:52:00,51.7,29.3,30.15,NNW,338,1.6,3.1,42,0.00,,,0.00,WUHU216HW,2013-01-22 13:52:00,
2013-01-22 06:57:00,51.8,29.3,30.15,NNW,338,1.1,2.2,42,0.00,,,0.00,WUHU216HW,2013-01-22 13:57:00,
2013-01-22 07:02:00,51.8,29.3,30.15,NNW,338,1.3,2.2,42,0.00,,,0.00,WUHU216HW,2013-01-22 14:02:00,
2013-01-22 07:07:00,51.8,29.3,30.16,NNW,338,2.2,2.2,42,0.00,,,0.00,WUHU216HW,2013-01-22 14:07:00,
2013-01-22 07:12:00,51.8,29.3,30.16,NW,315,1.3,2.5,42,0.00,,,0.00,WUHU216HW,2013-01-22 14:12:00,
2013-01-22 07:17:00,51.8,29.3,30.16,NW,315,1.3,2.5,42,0.00,,,0.00,WUHU216HW,2013-01-22 14:17:00,
2013-01-22 07:22:00,51.8,29.3,30.16,NNW,338,1.8,2.0,42,0.00,,,0.00,WUHU216HW,2013-01-22 14:22:00,
2013-01-22 07:27:00,51.8,29.3,30.16,NNW,338,1.3,2.0,42,0.00,,,0.00,WUHU216HW,2013-01-22 14:27:00,
2013-01-22 07:33:00,51.7,29.3,30.15,NNW,338,1.1,1.8,42,0.00,,,0.00,WUHU216HW,2013-01-22 14:33:00,
2013-01-22 07:38:00,51.5,29.1,30.15,North,0,1.6,1.8,42,0.00,,,0.00,WUHU216HW,2013-01-22 14:38:00,
2013-01-22 07:42:00,51.5,29.6,30.15,NNW,338,1.1,1.8,43,0.00,,,0.00,WUHU216HW,2013-01-22 14:42:00,
2013-01-22 07:48:00,51.3,29.4,30.15,West,270,1.1,1.6,43,0.00,,,0.00,WUHU216HW,2013-01-22 14:48:00,
2013-01-22 07:53:00,51.3,28.9,30.15,WNW,293,2.0,2.2,42,0.00,,,0.00,WUHU216HW,2013-01-22 14:53:00,
2013-01-22 07:58:00,51.3,28.9,30.15,SSW,203,0.4,2.7,42,0.00,,,0.00,WUHU216HW,2013-01-22 14:58:00,
2013-01-22 08:03:00,51.1,29.3,30.15,SSW,203,1.6,2.7,43,0.00,,,0.00,WUHU216HW,2013-01-22 15:03:00,
2013-01-22 08:08:00,50.8,29.0,30.15,SSW,203,0.4,1.6,43,0.00,,,0.00,WUHU216HW,2013-01-22 15:08:00,
2013-01-22 08:13:00,50.8,29.0,30.15,South,180,0.4,1.6,43,0.00,,,0.00,WUHU216HW,2013-01-22 15:13:00,
2013-01-22 08:18:00,50.6,29.3,30.15,SSW,203,0.0,1.1,44,0.00,,,0.00,WUHU216HW,2013-01-22 15:18:00,
2013-01-22 08:23:00,50.6,29.3,30.15,SSW,203,0.0,0.4,44,0.00,,,0.00,WUHU216HW,2013-01-22 15:23:00,
2013-01-22 08:28:00,50.6,29.3,30.14,NNE,23,0.0,0.0,44,0.00,,,0.00,WUHU216HW,2013-01-22 15:28:00,
2013-01-22 08:33:00,50.8,29.5,30.14,NNE,23,0.0,0.2,44,0.00,,,0.00,WUHU216HW,2013-01-22 15:33:00,
2013-01-22 08:38:00,50.8,29.0,30.14,NW,315,0.0,0.2,43,0.00,,,0.00,WUHU216HW,2013-01-22 15:38:00,
2013-01-22 08:43:00,51.1,29.3,30.15,SW,225,0.4,1.1,43,0.00,,,0.00,WUHU216HW,2013-01-22 15:43:00,
2013-01-22 08:48:00,51.5,29.6,30.15,NNW,338,0.4,1.1,43,0.00,,,0.00,WUHU216HW,2013-01-22 15:48:00,
2013-01-22 08:53:00,52.0,30.1,30.15,NNW,338,0.4,1.6,43,0.00,,,0.00,WUHU216HW,2013-01-22 15:53:00,
2013-01-22 08:58:00,52.4,30.4,30.15,North,0,0.2,1.6,43,0.00,,,0.00,WUHU216HW,2013-01-22 15:58:00,
2013-01-22 09:03:00,52.7,30.8,30.15,NNW,338,1.1,1.6,43,0.00,,,0.00,WUHU216HW,2013-01-22 16:03:00,
2013-01-22 09:08:00,53.1,31.6,30.16,West,270,1.1,1.3,44,0.00,,,0.00,WUHU216HW,2013-01-22 16:08:00,
2013-01-22 09:13:00,53.5,32.0,30.16,SSW,203,1.6,1.6,44,0.00,,,0.00,WUHU216HW,2013-01-22 16:13:00,
2013-01-22 09:18:00,53.6,32.1,30.17,West,270,1.1,1.6,44,0.00,,,0.00,WUHU216HW,2013-01-22 16:18:00,
2013-01-22 09:23:00,54.0,31.9,30.17,WSW,248,1.1,1.8,43,0.00,,,0.00,WUHU216HW,2013-01-22 16:23:00,
2013-01-22 09:28:00,54.4,32.2,30.17,SSE,158,0.2,1.8,43,0.00,,,0.00,WUHU216HW,2013-01-22 16:28:00,
2013-01-22 09:33:00,54.4,32.2,30.17,SW,225,1.1,1.8,43,0.00,,,0.00,WUHU216HW,2013-01-22 16:33:00,
2013-01-22 09:38:00,55.1,32.9,30.17,SW,225,0.4,1.8,43,0.00,,,0.00,WUHU216HW,2013-01-22 16:38:00,
2013-01-22 09:43:00,55.4,32.6,30.17,NW,315,0.4,1.8,42,0.00,,,0.00,WUHU216HW,2013-01-22 16:43:00,
2013-01-22 09:48:00,56.0,32.6,30.17,SW,225,0.4,1.3,41,0.00,,,0.00,WUHU216HW,2013-01-22 16:48:00,
2013-01-22 09:53:00,56.5,33.0,30.17,West,270,2.0,2.7,41,0.00,,,0.00,WUHU216HW,2013-01-22 16:53:00,
2013-01-22 09:58:00,56.9,33.4,30.17,WSW,248,2.2,2.7,41,0.00,,,0.00,WUHU216HW,2013-01-22 16:58:00,
2013-01-22 10:03:00,57.4,33.3,30.18,West,270,1.8,3.1,40,0.00,,,0.00,WUHU216HW,2013-01-22 17:03:00,
2013-01-22 10:08:00,58.0,33.8,30.18,SSW,203,0.7,3.1,40,0.00,,,0.00,WUHU216HW,2013-01-22 17:08:00,
2013-01-22 10:13:00,58.3,34.1,30.18,SW,225,2.0,2.5,40,0.00,,,0.00,WUHU216HW,2013-01-22 17:13:00,
2013-01-22 10:18:00,58.7,33.8,30.18,SSW,203,1.3,2.5,39,0.00,,,0.00,WUHU216HW,2013-01-22 17:18:00,
2013-01-22 10:23:00,58.9,33.8,30.18,SW,225,1.8,2.5,39,0.00,,,0.00,WUHU216HW,2013-01-22 17:23:00,
2013-01-22 10:28:00,59.0,34.0,30.18,SW,225,1.8,3.4,39,0.00,,,0.00,WUHU216HW,2013-01-22 17:28:00,
2013-01-22 10:33:00,59.6,34.6,30.18,West,270,2.2,3.4,39,0.00,,,0.00,WUHU216HW,2013-01-22 17:33:00,
2013-01-22 10:38:00,60.1,35.0,30.18,NW,315,1.6,4.0,39,0.00,,,0.00,WUHU216HW,2013-01-22 17:38:00,
2013-01-22 10:43:00,60.5,34.6,30.18,WSW,248,4.0,4.0,38,0.00,,,0.00,WUHU216HW,2013-01-22 17:43:00,
2013-01-22 10:48:00,60.8,34.9,30.18,SSW,203,1.6,4.0,38,0.00,,,0.00,WUHU216HW,2013-01-22 17:48:00,
2013-01-22 10:53:00,61.0,35.1,30.18,SSW,203,1.8,4.0,38,0.00,,,0.00,WUHU216HW,2013-01-22 17:53:00,
2013-01-22 10:58:00,61.0,35.1,30.18,South,180,1.1,2.5,38,0.00,,,0.00,WUHU216HW,2013-01-22 17:58:00,
2013-01-22 11:03:00,61.2,35.3,30.18,West,270,0.4,2.5,38,0.00,,,0.00,WUHU216HW,2013-01-22 18:03:00,
2013-01-22 11:08:00,61.7,35.0,30.17,ESE,113,0.9,2.5,37,0.00,,,0.00,WUHU216HW,2013-01-22 18:08:00,
2013-01-22 11:13:00,62.1,35.4,30.17,SSW,203,3.1,3.1,37,0.00,,,0.00,WUHU216HW,2013-01-22 18:13:00,
2013-01-22 11:18:00,62.8,36.0,30.16,SSE,158,1.3,3.1,37,0.00,,,0.00,WUHU216HW,2013-01-22 18:18:00,
2013-01-22 11:23:00,63.2,35.6,30.16,WSW,248,0.9,3.1,36,0.00,,,0.00,WUHU216HW,2013-01-22 18:23:00,
2013-01-22 11:28:00,63.7,36.1,30.16,SE,135,0.2,2.7,36,0.00,,,0.00,WUHU216HW,2013-01-22 18:28:00,
2013-01-22 11:33:00,63.9,35.6,30.16,NE,45,1.1,2.5,35,0.00,,,0.00,WUHU216HW,2013-01-22 18:33:00,
2013-01-22 11:38:00,64.3,35.1,30.16,NW,315,1.6,4.5,34,0.00,,,0.00,WUHU216HW,2013-01-22 18:38:00,
2013-01-22 11:43:00,64.6,35.5,30.16,NNW,338,2.2,4.5,34,0.00,,,0.00,WUHU216HW,2013-01-22 18:43:00,
2013-01-22 11:48:00,65.2,35.2,30.15,WSW,248,1.1,3.4,33,0.00,,,0.00,WUHU216HW,2013-01-22 18:48:00,
2013-01-22 11:53:00,65.9,36.5,30.15,South,180,1.1,3.1,34,0.00,,,0.00,WUHU216HW,2013-01-22 18:53:00,
2013-01-22 11:58:00,66.4,36.4,30.15,WSW,248,3.4,4.0,33,0.00,,,0.00,WUHU216HW,2013-01-22 18:58:00,
2013-01-22 12:03:00,67.0,36.8,30.14,SSW,203,3.4,4.0,33,0.00,,,0.00,WUHU216HW,2013-01-22 19:03:00,
2013-01-22 12:08:00,67.7,36.6,30.14,SSW,203,3.4,3.8,32,0.00,,,0.00,WUHU216HW,2013-01-22 19:08:00,
2013-01-22 12:13:00,68.2,37.1,30.14,WSW,248,2.9,4.7,32,0.00,,,0.00,WUHU216HW,2013-01-22 19:13:00,
2013-01-22 12:18:00,68.4,36.6,30.14,NNW,338,1.6,4.7,31,0.00,,,0.00,WUHU216HW,2013-01-22 19:18:00,
2013-01-22 12:23:00,68.8,36.8,30.14,NW,315,2.2,2.5,31,0.00,,,0.00,WUHU216HW,2013-01-22 19:23:00,
2013-01-22 12:28:00,69.3,36.6,30.14,West,270,1.8,3.4,30,0.00,,,0.00,WUHU216HW,2013-01-22 19:28:00,
2013-01-22 12:33:00,69.7,36.9,30.13,WSW,248,1.1,4.7,30,0.00,,,0.00,WUHU216HW,2013-01-22 19:33:00,
2013-01-22 12:38:00,70.0,36.3,30.13,SW,225,4.7,4.7,29,0.00,,,0.00,WUHU216HW,2013-01-22 19:38:00,
2013-01-22 12:43:00,70.6,37.7,30.13,WSW,248,3.4,4.7,30,0.00,,,0.00,WUHU216HW,2013-01-22 19:43:00,
2013-01-22 12:48:00,70.9,38.1,30.13,SSW,203,2.7,4.7,30,0.00,,,0.00,WUHU216HW,2013-01-22 19:48:00,
2013-01-22 12:53:00,71.3,37.4,30.12,NW,315,3.6,4.3,29,0.00,,,0.00,WUHU216HW,2013-01-22 19:53:00,
2013-01-22 12:58:00,71.6,34.6,30.12,WNW,293,3.1,4.5,26,0.00,,,0.00,WUHU216HW,2013-01-22 19:58:00,
2013-01-22 13:03:00,71.8,36.8,30.12,SSW,203,1.1,4.7,28,0.00,,,0.00,WUHU216HW,2013-01-22 20:03:00,
2013-01-22 13:08:00,72.4,37.3,30.12,SSW,203,3.6,5.4,28,0.00,,,0.00,WUHU216HW,2013-01-22 20:08:00,
2013-01-22 13:13:00,72.9,37.7,30.12,WSW,248,5.4,5.4,28,0.00,,,0.00,WUHU216HW,2013-01-22 20:13:00,
2013-01-22 13:18:00,73.3,37.0,30.12,ESE,113,0.7,5.4,27,0.00,,,0.00,WUHU216HW,2013-01-22 20:18:00,
2013-01-22 13:23:00,73.6,36.3,30.12,SSW,203,3.4,6.7,26,0.00,,,0.00,WUHU216HW,2013-01-22 20:23:00,
2013-01-22 13:28:00,73.8,36.5,30.11,ENE,68,1.8,6.7,26,0.00,,,0.00,WUHU216HW,2013-01-22 20:28:00,
2013-01-22 13:33:00,73.8,35.4,30.11,West,270,1.6,3.4,25,0.00,,,0.00,WUHU216HW,2013-01-22 20:33:00,
2013-01-22 13:38:00,74.5,37.1,30.11,South,180,3.1,5.4,26,0.00,,,0.00,WUHU216HW,2013-01-22 20:38:00,
2013-01-22 13:43:00,75.1,36.5,30.11,WSW,248,2.2,5.4,25,0.00,,,0.00,WUHU216HW,2013-01-22 20:43:00,
2013-01-22 13:48:00,76.0,36.2,30.11,WSW,248,4.3,6.7,24,0.00,,,0.00,WUHU216HW,2013-01-22 20:48:00,
2013-01-22 13:53:00,76.0,36.2,30.11,SSE,158,1.3,6.7,24,0.00,,,0.00,WUHU216HW,2013-01-22 20:53:00,
2013-01-22 13:58:00,76.0,35.2,30.11,WNW,293,2.2,7.6,23,0.00,,,0.00,WUHU216HW,2013-01-22 20:58:00,
2013-01-22 14:03:00,76.5,35.7,30.10,SW,225,4.9,7.6,23,0.00,,,0.00,WUHU216HW,2013-01-22 21:03:00,
2013-01-22 14:08:00,77.0,35.0,30.10,SW,225,4.3,6.7,22,0.00,,,0.00,WUHU216HW,2013-01-22 21:08:00,
2013-01-22 14:13:00,77.0,35.0,30.10,NNW,338,2.2,6.0,22,0.00,,,0.00,WUHU216HW,2013-01-22 21:13:00,
2013-01-22 14:18:00,77.0,35.0,30.10,WSW,248,5.1,5.6,22,0.00,,,0.00,WUHU216HW,2013-01-22 21:18:00,
2013-01-22 14:23:00,77.2,34.1,30.10,WSW,248,3.4,7.8,21,0.00,,,0.00,WUHU216HW,2013-01-22 21:23:00,
2013-01-22 14:28:00,77.2,34.1,30.11,West,270,4.0,7.8,21,0.00,,,0.00,WUHU216HW,2013-01-22 21:28:00,
2013-01-22 14:31:00,77.6,34.4,30.11,WSW,248,6.9,8.3,21,0.00,,,0.00,WUHU216HW,2013-01-22 21:31:00,
2013-01-22 14:36:00,77.6,34.4,30.11,SW,225,4.7,8.3,21,0.00,,,0.00,WUHU216HW,2013-01-22 21:36:00,
2013-01-22 14:42:00,77.4,31.6,30.11,NNW,338,4.3,8.1,19,0.00,,,0.00,WUHU216HW,2013-01-22 21:42:00,
2013-01-22 14:47:00,77.4,31.6,30.11,NNW,338,2.5,6.5,19,0.00,,,0.00,WUHU216HW,2013-01-22 21:47:00,
2013-01-22 14:52:00,77.2,31.4,30.10,NW,315,3.1,6.5,19,0.00,,,0.00,WUHU216HW,2013-01-22 21:52:00,
2013-01-22 14:57:00,77.4,34.3,30.11,West,270,2.9,6.7,21,0.00,,,0.00,WUHU216HW,2013-01-22 21:57:00,
2013-01-22 15:02:00,77.8,31.9,30.11,NW,315,7.6,7.6,19,0.00,,,0.00,WUHU216HW,2013-01-22 22:02:00,
2013-01-22 15:07:00,77.8,31.9,30.11,WNW,293,1.6,7.6,19,0.00,,,0.00,WUHU216HW,2013-01-22 22:07:00,
2013-01-22 15:12:00,77.6,31.7,30.11,SSW,203,5.8,7.6,19,0.00,,,0.00,WUHU216HW,2013-01-22 22:12:00,
2013-01-22 15:17:00,78.1,34.8,30.11,SSE,158,2.2,6.3,21,0.00,,,0.00,WUHU216HW,2013-01-22 22:17:00,
2013-01-22 15:22:00,78.7,32.6,30.11,NW,315,5.4,6.3,19,0.00,,,0.00,WUHU216HW,2013-01-22 22:22:00,
2013-01-22 15:27:00,78.5,32.4,30.11,WSW,248,3.8,6.3,19,0.00,,,0.00,WUHU216HW,2013-01-22 22:27:00,
2013-01-22 15:32:00,78.7,35.3,30.11,SSW,203,1.1,6.3,21,0.00,,,0.00,WUHU216HW,2013-01-22 22:32:00,
2013-01-22 15:37:00,78.8,35.5,30.11,SSW,203,4.9,5.8,21,0.00,,,0.00,WUHU216HW,2013-01-22 22:37:00,
2013-01-22 15:42:00,78.7,32.6,30.11,WSW,248,8.5,8.5,19,0.00,,,0.00,WUHU216HW,2013-01-22 22:42:00,
2013-01-22 15:47:00,78.3,32.3,30.11,NW,315,3.6,8.5,19,0.00,,,0.00,WUHU216HW,2013-01-22 22:47:00,
2013-01-22 15:52:00,78.1,32.1,30.11,WNW,293,4.9,8.5,19,0.00,,,0.00,WUHU216HW,2013-01-22 22:52:00,
2013-01-22 15:57:00,77.9,32.0,30.11,NW,315,6.5,7.6,19,0.00,,,0.00,WUHU216HW,2013-01-22 22:57:00,
2013-01-22 16:02:00,77.9,32.0,30.11,West,270,4.3,7.6,19,0.00,,,0.00,WUHU216HW,2013-01-22 23:02:00,
2013-01-22 16:07:00,77.9,32.0,30.11,NNW,338,6.0,6.9,19,0.00,,,0.00,WUHU216HW,2013-01-22 23:07:00,
2013-01-22 16:12:00,77.9,33.7,30.11,West,270,6.5,7.6,20,0.00,,,0.00,WUHU216HW,2013-01-22 23:12:00,
2013-01-22 16:17:00,77.9,34.8,30.11,NNW,338,3.6,8.5,21,0.00,,,0.00,WUHU216HW,2013-01-22 23:17:00,
2013-01-22 16:22:00,77.9,34.8,30.11,West,270,6.3,8.5,21,0.00,,,0.00,WUHU216HW,2013-01-22 23:22:00,
2013-01-22 16:27:00,77.9,32.0,30.11,NW,315,2.5,6.3,19,0.00,,,0.00,WUHU216HW,2013-01-22 23:27:00,
2013-01-22 16:32:00,77.8,34.6,30.11,North,0,1.8,7.8,21,0.00,,,0.00,WUHU216HW,2013-01-22 23:32:00,
2013-01-22 16:37:00,77.8,34.6,30.11,West,270,5.4,7.8,21,0.00,,,0.00,WUHU216HW,2013-01-22 23:37:00,
2013-01-22 16:42:00,77.6,34.4,30.11,West,270,4.7,6.3,21,0.00,,,0.00,WUHU216HW,2013-01-22 23:42:00,
2013-01-22 16:47:00,77.4,34.3,30.11,North,0,4.3,8.5,21,0.00,,,0.00,WUHU216HW,2013-01-22 23:47:00,
2013-01-22 16:52:00,77.2,34.1,30.12,WNW,293,4.7,9.2,21,0.00,,,0.00,WUHU216HW,2013-01-22 23:52:00,
2013-01-22 16:57:00,77.0,34.0,30.12,NW,315,6.3,9.2,21,0.00,,,0.00,WUHU216HW,2013-01-22 23:57:00,
2013-01-22 17:02:00,76.9,33.9,30.11,West,270,3.4,8.5,21,0.00,,,0.00,WUHU216HW,2013-01-23 00:02:00,
2013-01-22 17:07:00,76.7,33.7,30.11,WNW,293,4.7,7.6,21,0.00,,,0.00,WUHU216HW,2013-01-23 00:07:00,
2013-01-22 17:12:00,76.3,33.4,30.12,NNW,338,7.6,7.6,21,0.00,,,0.00,WUHU216HW,2013-01-23 00:12:00,
2013-01-22 17:17:00,76.0,33.1,30.12,NW,315,6.9,8.1,21,0.00,,,0.00,WUHU216HW,2013-01-23 00:17:00,
2013-01-22 17:22:00,75.6,32.9,30.12,NW,315,7.8,8.1,21,0.00,,,0.00,WUHU216HW,2013-01-23 00:22:00,
2013-01-22 17:27:00,75.2,32.5,30.12,NNW,338,6.7,7.8,21,0.00,,,0.00,WUHU216HW,2013-01-23 00:27:00,
2013-01-22 17:32:00,74.7,33.1,30.12,NW,315,5.8,7.8,22,0.00,,,0.00,WUHU216HW,2013-01-23 00:32:00,
2013-01-22 17:37:00,74.2,32.7,30.12,WSW,248,4.7,6.3,22,0.00,,,0.00,WUHU216HW,2013-01-23 00:37:00,
2013-01-22 17:42:00,73.6,32.2,30.12,NW,315,3.4,5.8,22,0.00,,,0.00,WUHU216HW,2013-01-23 00:42:00,
2013-01-22 17:47:00,73.1,31.8,30.12,NNW,338,4.7,5.8,22,0.00,,,0.00,WUHU216HW,2013-01-23 00:47:00,
2013-01-22 17:52:00,72.7,32.5,30.12,North,0,6.5,7.4,23,0.00,,,0.00,WUHU216HW,2013-01-23 00:52:00,
2013-01-22 17:57:00,72.5,32.3,30.12,NNE,23,4.0,7.4,23,0.00,,,0.00,WUHU216HW,2013-01-23 00:57:00,
2013-01-22 18:02:00,72.4,32.1,30.12,NNW,338,5.1,6.5,23,0.00,,,0.00,WUHU216HW,2013-01-23 01:02:00,
2013-01-22 18:07:00,72.2,32.0,30.12,NNW,338,6.9,7.8,23,0.00,,,0.00,WUHU216HW,2013-01-23 01:07:00,
2013-01-22 18:12:00,72.0,31.9,30.12,North,0,6.3,9.6,23,0.00,,,0.00,WUHU216HW,2013-01-23 01:12:00,
2013-01-22 18:17:00,72.0,31.9,30.12,NE,45,4.3,9.6,23,0.00,,,0.00,WUHU216HW,2013-01-23 01:17:00,
2013-01-22 18:22:00,72.0,31.9,30.12,NW,315,4.3,11.9,23,0.00,,,0.00,WUHU216HW,2013-01-23 01:22:00,
2013-01-22 18:27:00,72.0,31.9,30.12,NW,315,5.6,11.9,23,0.00,,,0.00,WUHU216HW,2013-01-23 01:27:00,
2013-01-22 18:32:00,71.8,31.7,30.12,North,0,9.2,12.1,23,0.00,,,0.00,WUHU216HW,2013-01-23 01:32:00,
2013-01-22 18:37:00,71.8,30.7,30.12,NNE,23,7.6,12.1,22,0.00,,,0.00,WUHU216HW,2013-01-23 01:37:00,
2013-01-22 18:42:00,71.6,30.5,30.12,NNE,23,4.0,12.1,22,0.00,,,0.00,WUHU216HW,2013-01-23 01:42:00,
2013-01-22 18:47:00,71.5,31.4,30.12,NNE,23,4.0,12.1,23,0.00,,,0.00,WUHU216HW,2013-01-23 01:47:00,
2013-01-22 18:52:00,71.3,30.3,30.12,North,0,9.6,11.9,22,0.00,,,0.00,WUHU216HW,2013-01-23 01:52:00,
2013-01-22 18:57:00,71.3,30.3,30.12,NNE,23,6.3,10.5,22,0.00,,,0.00,WUHU216HW,2013-01-23 01:57:00,
2013-01-22 19:03:00,70.9,29.9,30.12,NE,45,4.0,8.5,22,0.00,,,0.00,WUHU216HW,2013-01-23 02:03:00,
2013-01-22 19:08:00,70.9,29.9,30.12,North,0,9.8,9.8,22,0.00,,,0.00,WUHU216HW,2013-01-23 02:08:00,
2013-01-22 19:13:00,70.9,29.9,30.12,NNW,338,3.4,9.8,22,0.00,,,0.00,WUHU216HW,2013-01-23 02:13:00,
2013-01-22 19:18:00,70.7,29.8,30.12,NNE,23,7.4,11.4,22,0.00,,,0.00,WUHU216HW,2013-01-23 02:18:00,
2013-01-22 19:23:00,70.6,29.6,30.13,NE,45,6.9,11.4,22,0.00,,,0.00,WUHU216HW,2013-01-23 02:23:00,
2013-01-22 19:28:00,70.6,29.6,30.13,NNE,23,4.0,9.4,22,0.00,,,0.00,WUHU216HW,2013-01-23 02:28:00,
2013-01-22 19:33:00,70.4,29.4,30.13,SSE,158,1.8,8.7,22,0.00,,,0.00,WUHU216HW,2013-01-23 02:33:00,
2013-01-22 19:38:00,69.8,29.0,30.13,ESE,113,2.7,4.9,22,0.00,,,0.00,WUHU216HW,2013-01-23 02:38:00,
2013-01-22 19:43:00,68.8,29.2,30.13,ESE,113,1.3,4.3,23,0.00,,,0.00,WUHU216HW,2013-01-23 02:43:00,
2013-01-22 19:48:00,68.0,28.5,30.13,ESE,113,1.1,2.9,23,0.00,,,0.00,WUHU216HW,2013-01-23 02:48:00,
2013-01-22 19:53:00,67.1,28.7,30.13,East,90,1.1,2.9,24,0.00,,,0.00,WUHU216HW,2013-01-23 02:53:00,
2013-01-22 19:58:00,66.4,29.2,30.13,East,90,0.9,2.5,25,0.00,,,0.00,WUHU216HW,2013-01-23 02:58:00,
2013-01-22 20:03:00,65.9,28.7,30.13,North,0,2.2,2.5,25,0.00,,,0.00,WUHU216HW,2013-01-23 03:03:00,
2013-01-22 20:08:00,65.7,28.5,30.13,NW,315,2.2,2.5,25,0.00,,,0.00,WUHU216HW,2013-01-23 03:08:00,
2013-01-22 20:13:00,65.7,28.5,30.14,NNW,338,2.9,2.9,25,0.00,,,0.00,WUHU216HW,2013-01-23 03:13:00,
2013-01-22 20:18:00,65.7,28.5,30.14,WNW,293,2.0,2.9,25,0.00,,,0.00,WUHU216HW,2013-01-23 03:18:00,
2013-01-22 20:23:00,65.7,28.5,30.14,West,270,2.7,2.9,25,0.00,,,0.00,WUHU216HW,2013-01-23 03:23:00,
2013-01-22 20:28:00,65.9,29.7,30.14,SW,225,2.2,3.4,26,0.00,,,0.00,WUHU216HW,2013-01-23 03:28:00,
2013-01-22 20:33:00,65.2,29.1,30.14,ESE,113,1.8,3.4,26,0.00,,,0.00,WUHU216HW,2013-01-23 03:33:00,
2013-01-22 20:38:00,64.6,28.6,30.14,East,90,1.3,3.1,26,0.00,,,0.00,WUHU216HW,2013-01-23 03:38:00,
2013-01-22 20:43:00,64.1,29.2,30.14,East,90,1.3,2.0,27,0.00,,,0.00,WUHU216HW,2013-01-23 03:43:00,
2013-01-22 20:48:00,63.7,28.8,30.14,ENE,68,1.1,2.2,27,0.00,,,0.00,WUHU216HW,2013-01-23 03:48:00,
2013-01-22 20:53:00,63.4,28.5,30.15,East,90,0.9,2.2,27,0.00,,,0.00,WUHU216HW,2013-01-23 03:53:00,
2013-01-22 20:58:00,63.0,29.2,30.14,East,90,1.8,2.5,28,0.00,,,0.00,WUHU216HW,2013-01-23 03:58:00,
2013-01-22 21:03:00,62.6,28.8,30.15,ESE,113,2.7,2.7,28,0.00,,,0.00,WUHU216HW,2013-01-23 04:03:00,
2013-01-22 21:08:00,62.1,28.4,30.15,ESE,113,2.7,3.4,28,0.00,,,0.00,WUHU216HW,2013-01-23 04:08:00,
2013-01-22 21:13:00,61.7,28.1,30.15,ESE,113,2.2,3.4,28,0.00,,,0.00,WUHU216HW,2013-01-23 04:13:00,
2013-01-22 21:18:00,61.4,27.7,30.15,East,90,3.4,4.3,28,0.00,,,0.00,WUHU216HW,2013-01-23 04:18:00,
2013-01-22 21:23:00,61.0,27.5,30.15,East,90,3.1,4.3,28,0.00,,,0.00,WUHU216HW,2013-01-23 04:23:00,
2013-01-22 21:28:00,60.8,28.2,30.15,East,90,3.4,4.3,29,0.00,,,0.00,WUHU216HW,2013-01-23 04:28:00,
2013-01-22 21:33:00,60.7,28.1,30.15,East,90,3.4,4.0,29,0.00,,,0.00,WUHU216HW,2013-01-23 04:33:00,
2013-01-22 21:38:00,60.5,27.9,30.15,ESE,113,4.7,6.3,29,0.00,,,0.00,WUHU216HW,2013-01-23 04:38:00,
2013-01-22 21:43:00,60.7,28.1,30.15,ENE,68,6.3,7.6,29,0.00,,,0.00,WUHU216HW,2013-01-23 04:43:00,
2013-01-22 21:48:00,60.7,28.1,30.15,East,90,5.4,7.6,29,0.00,,,0.00,WUHU216HW,2013-01-23 04:48:00,
2013-01-22 21:53:00,60.7,28.1,30.15,ENE,68,6.3,6.9,29,0.00,,,0.00,WUHU216HW,2013-01-23 04:53:00,
2013-01-22 21:58:00,60.7,28.1,30.15,SSE,158,4.7,6.3,29,0.00,,,0.00,WUHU216HW,2013-01-23 04:58:00,
2013-01-22 22:00:00,60.5,27.9,30.15,ESE,113,4.7,6.3,29,0.00,,,0.00,WUHU216HW,2013-01-23 05:00:00,
2013-01-22 22:03:00,60.5,27.9,30.16,SE,135,3.4,6.3,29,0.00,,,0.00,WUHU216HW,2013-01-23 05:03:00,
2013-01-22 22:08:00,60.1,27.6,30.16,ENE,68,4.0,5.4,29,0.00,,,0.00,WUHU216HW,2013-01-23 05:08:00,
2013-01-22 22:13:00,60.1,27.6,30.16,ENE,68,4.3,6.3,29,0.00,,,0.00,WUHU216HW,2013-01-23 05:13:00,
2013-01-22 22:18:00,59.9,27.5,30.16,ENE,68,4.7,6.3,29,0.00,,,0.00,WUHU216HW,2013-01-23 05:18:00,
2013-01-22 22:23:00,59.9,27.5,30.16,ESE,113,3.8,6.5,29,0.00,,,0.00,WUHU216HW,2013-01-23 05:23:00,
2013-01-22 22:28:00,59.9,27.5,30.17,ENE,68,3.4,6.5,29,0.00,,,0.00,WUHU216HW,2013-01-23 05:28:00,
2013-01-22 22:33:00,59.8,27.4,30.17,ESE,113,4.0,5.6,29,0.00,,,0.00,WUHU216HW,2013-01-23 05:33:00,
2013-01-22 22:38:00,59.4,27.0,30.16,East,90,5.4,5.6,29,0.00,,,0.00,WUHU216HW,2013-01-23 05:38:00,
2013-01-22 22:43:00,59.0,27.7,30.16,East,90,7.2,7.6,30,0.00,,,0.00,WUHU216HW,2013-01-23 05:43:00,
2013-01-22 22:48:00,58.9,27.5,30.16,East,90,5.1,7.6,30,0.00,,,0.00,WUHU216HW,2013-01-23 05:48:00,
2013-01-22 22:53:00,58.9,27.5,30.16,ENE,68,4.0,7.2,30,0.00,,,0.00,WUHU216HW,2013-01-23 05:53:00,
2013-01-22 22:58:00,58.7,27.4,30.16,ENE,68,4.0,6.3,30,0.00,,,0.00,WUHU216HW,2013-01-23 05:58:00,
2013-01-22 23:03:00,58.7,27.4,30.16,East,90,4.9,6.3,30,0.00,,,0.00,WUHU216HW,2013-01-23 06:03:00,
2013-01-22 23:08:00,58.7,27.4,30.16,ESE,113,6.0,7.6,30,0.00,,,0.00,WUHU216HW,2013-01-23 06:08:00,
2013-01-22 23:13:00,58.7,27.4,30.16,East,90,3.8,7.6,30,0.00,,,0.00,WUHU216HW,2013-01-23 06:13:00,
2013-01-22 23:18:00,58.5,27.9,30.16,East,90,3.6,6.0,31,0.00,,,0.00,WUHU216HW,2013-01-23 06:18:00,
2013-01-22 23:23:00,58.7,28.1,30.16,ENE,68,5.1,6.0,31,0.00,,,0.00,WUHU216HW,2013-01-23 06:23:00,
2013-01-22 23:28:00,58.7,28.1,30.17,ENE,68,4.0,5.8,31,0.00,,,0.00,WUHU216HW,2013-01-23 06:28:00,
2013-01-22 23:33:00,58.5,27.9,30.17,East,90,3.4,5.1,31,0.00,,,0.00,WUHU216HW,2013-01-23 06:33:00,
2013-01-22 23:38:00,58.5,27.9,30.17,ENE,68,3.4,4.9,31,0.00,,,0.00,WUHU216HW,2013-01-23 06:38:00,
2013-01-22 23:43:00,58.3,27.8,30.17,ENE,68,2.5,4.7,31,0.00,,,0.00,WUHU216HW,2013-01-23 06:43:00,
2013-01-22 23:48:00,58.1,27.6,30.17,ENE,68,2.7,3.8,31,0.00,,,0.00,WUHU216HW,2013-01-23 06:48:00,
2013-01-22 23:53:00,58.1,27.6,30.17,East,90,3.1,3.8,31,0.00,,,0.00,WUHU216HW,2013-01-23 06:53:00,
2013-01-22 23:58:00,58.1,27.6,30.17,ENE,68,2.7,4.5,31,0.00,,,0.00,WUHU216HW,2013-01-23 06:58:00,